Stonington Weather Center

Moon Phase Calendar



Online Cameras

 


      

Current Conditions in Stonington
11/24/2020 5:11:40 AM

33°F
Feels Like 18
Clear
Humidity
70%
Pressure
29.94"
Wind
18 mph (NW)
Dew Point
25°F
UV Index
1/10 (Low)
Visibility
6 mi

Hourly Forecast

Date & Time Tue, Nov 24
5:00 AM
Tue, Nov 24
6:00 AM
Tue, Nov 24
7:00 AM
Tue, Nov 24
8:00 AM
Tue, Nov 24
9:00 AM
Tue, Nov 24
10:00 AM
Tue, Nov 24
11:00 AM
Tue, Nov 24
12:00 PM
Tue, Nov 24
1:00 PM
Tue, Nov 24
2:00 PM
Tue, Nov 24
3:00 PM
Tue, Nov 24
4:00 PM
Tue, Nov 24
5:00 PM
Tue, Nov 24
6:00 PM
Tue, Nov 24
7:00 PM
Tue, Nov 24
8:00 PM
Tue, Nov 24
9:00 PM
Tue, Nov 24
10:00 PM
Tue, Nov 24
11:00 PM
Wed, Nov 25
12:00 AM
Wed, Nov 25
1:00 AM
Wed, Nov 25
2:00 AM
Wed, Nov 25
3:00 AM
Wed, Nov 25
4:00 AM
Wed, Nov 25
5:00 AM
Wed, Nov 25
6:00 AM
Wed, Nov 25
7:00 AM
Wed, Nov 25
8:00 AM
Wed, Nov 25
9:00 AM
Wed, Nov 25
10:00 AM
Wed, Nov 25
11:00 AM
Wed, Nov 25
12:00 PM
Wed, Nov 25
1:00 PM
Wed, Nov 25
2:00 PM
Wed, Nov 25
3:00 PM
Wed, Nov 25
4:00 PM
Wed, Nov 25
5:00 PM
Wed, Nov 25
6:00 PM
Wed, Nov 25
7:00 PM
Wed, Nov 25
8:00 PM
Wed, Nov 25
9:00 PM
Wed, Nov 25
10:00 PM
Wed, Nov 25
11:00 PM
Thu, Nov 26
12:00 AM
Thu, Nov 26
1:00 AM
Thu, Nov 26
2:00 AM
Thu, Nov 26
3:00 AM
Thu, Nov 26
4:00 AM
Condition
Clear

Clear

Clear

Clear

Clear

Clear

Clear

Clear

Clear

Clear

Clear

Clear

Clear

Clear

Clear

Clear

Clear

Clear

Clear

Clear

Clear

Clouds

Clouds

Clouds

Clouds

Clouds

Clouds

Clouds

Clouds

Clouds

Clouds

Clouds

Clouds

Clouds

Clouds

Clouds

Rain

Clouds

Clouds

Clouds

Clouds

Clouds

Clouds

Clouds

Clouds

Clouds

Clouds

Clouds
Temperature 33°F35°F36°F36°F36°F35°F35°F35°F35°F35°F35°F33°F32°F31°F30°F30°F29°F29°F29°F29°F28°F28°F29°F30°F31°F32°F33°F35°F37°F38°F38°F40°F41°F43°F45°F46°F47°F48°F49°F49°F49°F48°F48°F47°F46°F45°F44°F44°F
Feels Like 14°F17°F17°F17°F16°F16°F16°F17°F18°F18°F17°F16°F14°F13°F14°F15°F15°F16°F17°F17°F19°F20°F21°F22°F23°F24°F25°F25°F25°F25°F25°F26°F27°F28°F29°F30°F31°F33°F34°F36°F38°F40°F41°F42°F41°F40°F39°F38°F
Cloudiness 0%0%0%0%0%0%0%0%0%0%0%0%0%0%0%0%0%0%1%1%7%100%100%100%100%100%100%100%100%100%100%100%100%100%100%100%100%100%100%100%100%100%100%100%100%100%100%100%
Visibility 6 mi6 mi6 mi6 mi6 mi6 mi6 mi6 mi6 mi6 mi6 mi6 mi6 mi6 mi6 mi6 mi6 mi6 mi6 mi6 mi6 mi6 mi6 mi6 mi6 mi6 mi6 mi6 mi6 mi6 mi6 mi6 mi6 mi6 mi6 mi6 mi6 mi6 mi6 mi6 mi6 mi6 mi6 mi6 mi6 mi6 mi6 mi6 mi
Precipitation 0%0%0%0%0%0%0%0%0%0%0%0%0%0%0%0%0%0%0%0%0%0%0%0%0%0%0%0%0%0%18%26%23%0%1%1%20%0%0%12%18%10%6%10%4%1%1%1%
Humidity 70%74%76%79%78%79%78%78%76%75%77%81%87%88%89%88%88%88%88%87%86%85%84%84%85%86%84%79%76%75%77%72%72%73%75%76%78%79%82%84%85%87%88%88%87%87%87%87%
Dew Point 25°F28°F29°F30°F30°F22°F20°F19°F19°F18°F18°F19°F19°F20°F19°F19°F18°F18°F17°F17°F16°F15°F15°F15°F16°F18°F20°F23°F26°F29°F32°F32°F33°F35°F37°F39°F40°F42°F44°F45°F45°F45°F44°F44°F43°F41°F41°F40°F
Pressure 29.94"29.94"29.97"30"30.03"30.06"30.09"30.12"30.15"30.18"30.21"30.27"30.3"30.36"30.39"30.42"30.45"30.45"30.47"30.47"30.5"30.5"30.5"30.5"30.5"30.5"30.53"30.53"30.5"30.5"30.47"30.45"30.42"30.39"30.36"30.36"30.33"30.3"30.3"30.3"30.3"30.3"30.27"30.27"30.27"30.27"30.27"30.27"
Wind Speed 25.3 mph25 mph25.8 mph27.2 mph28.7 mph27.4 mph26 mph24.2 mph23 mph23.1 mph23.4 mph24 mph25.3 mph24.7 mph21.8 mph19.2 mph17.4 mph15.2 mph13.9 mph12 mph8.7 mph6.4 mph5.6 mph5 mph6.1 mph6.4 mph7 mph10.8 mph14.7 mph16.6 mph16.9 mph18.8 mph19.9 mph21.8 mph23 mph23.3 mph23.9 mph23.3 mph23.2 mph20.5 mph16.4 mph12.8 mph9.7 mph7 mph5.6 mph6 mph5.3 mph5.7 mph
Wind
Direction
308°
NW
305°
NW
305°
NW
305°
NW
306°
NW
306°
NW
307°
NW
308°
NW
310°
NW
313°
NW
321°
NW
327°
NNW
331°
NNW
333°
NNW
337°
NNW
345°
NNW
348°
NNW
352°
N
354°
N

N
21°
NNE
42°
NE
62°
ENE
86°
E
105°
ESE
128°
SE
158°
SSE
173°
S
179°
S
188°
S
193°
SSW
191°
S
190°
S
192°
SSW
194°
SSW
200°
SSW
203°
SSW
202°
SSW
202°
SSW
216°
SW
226°
SW
231°
SW
242°
WSW
264°
W
308°
NW
341°
NNW
357°
N
12°
NNE

Daily Forecast

Date High Low Precip. Humidity
Today
Nov 24

Clear
37 °F
29 °F
0%
78%
Wednesday
Nov 25

Rain
49 °F
28 °F
23%
75%
Thursday
Nov 26

Rain
52 °F
44 °F
100%
91%
Friday
Nov 27

Rain
52 °F
49 °F
100%
94%
Saturday
Nov 28

Rain
49 °F
49 °F
45%
89%
Sunday
Nov 29

Clear
46 °F
39 °F
33%
71%
Monday
Nov 30

Rain
52 °F
46 °F
100%
86%
Tuesday
Dec 1

Rain
51 °F
41 °F
100%
91%
Wednesday
Dec 2

Clear
45 °F
40 °F
27%
67%
Thursday
Dec 3

Clouds
46 °F
39 °F
5%
67%
Friday
Dec 4

Rain
51 °F
46 °F
100%
95%
Saturday
Dec 5

Rain
46 °F
33 °F
95%
78%
Sunday
Dec 6

Clouds
34 °F
32 °F
4%
91%
Monday
Dec 7

Clear
42 °F
32 °F
0%
83%
Tuesday
Dec 8

Clouds
45 °F
40 °F
0%
67%
Wednesday
Dec 9

Clouds
39 °F
31 °F
0%
88%


Temperature 8-14 Day Outlook



Precipitation 8-14 Day Outlook




Quick Links
Stonington News
Stonington Photos
Stonington Videos




About Us
Contact Us
Site Map
Search Site
Advertise With Us
   
Stonington.USCoast.info
THE STONINGTON WEBSITE

Copyright 2020, Coastal Town
Privacy    |    Legal